| time (UTC) | temp C | wind direction | speed KPH | gust KPH | rain 1hr cm | rain 24hr cm | rain mn cm | humidity % | barometer mb |
| 20260507004503 | 25 | 257 | 6.4 | 24.1 | 0.00 | 0.00 | 0.00 | 56 | 1017.7 |
| 20260507004005 | 25 | 286 | 11.3 | 24.1 | 0.00 | 0.00 | 0.00 | 55 | 1017.8 |
| 20260507003504 | 25 | 261 | 11.3 | 27.4 | 0.00 | 0.00 | 0.00 | 54 | 1017.8 |
| 20260507003015 | 26 | 288 | 11.3 | 27.4 | 0.00 | 0.00 | 0.00 | 54 | 1017.7 |
| 20260507002503 | 26 | 272 | 12.9 | 27.4 | 0.00 | 0.00 | 0.00 | 53 | 1017.7 |
| 20260507002003 | 26 | 263 | 12.9 | 25.7 | 0.00 | 0.00 | 0.00 | 52 | 1017.7 |
| 20260507001511 | 27 | 263 | 8.0 | 24.1 | 0.00 | 0.00 | 0.00 | 52 | 1017.7 |
| 20260507001004 | 27 | 267 | 9.7 | 20.9 | 0.00 | 0.00 | 0.00 | 51 | 1017.7 |
| 20260507000502 | 27 | 264 | 6.4 | 20.9 | 0.00 | 0.00 | 0.00 | 51 | 1017.7 |
| 20260507000003 | 27 | 269 | 6.4 | 24.1 | 0.00 | 0.00 | 0.00 | 50 | 1017.8 |
| 20260506235503 | 27 | 270 | 9.7 | 24.1 | 0.00 | 0.00 | 0.00 | 50 | 1017.7 |
| 20260506235002 | 27 | 257 | 4.8 | 22.5 | 0.00 | 0.00 | 0.00 | 50 | 1017.7 |
| 20260506234504 | 27 | 257 | 6.4 | 22.5 | 0.00 | 0.00 | 0.00 | 49 | 1017.7 |
| 20260506234002 | 27 | 260 | 8.0 | 19.3 | 0.00 | 0.00 | 0.00 | 49 | 1017.8 |
| 20260506233504 | 27 | 263 | 8.0 | 19.3 | 0.00 | 0.00 | 0.00 | 49 | 1017.9 |
| 20260506233008 | 27 | 270 | 11.3 | 17.7 | 0.00 | 0.00 | 0.00 | 48 | 1017.9 |
| 20260506232505 | 27 | 274 | 8.0 | 16.1 | 0.00 | 0.00 | 0.00 | 48 | 1017.9 |
| 20260506232003 | 27 | 273 | 4.8 | 16.1 | 0.00 | 0.00 | 0.00 | 47 | 1018.0 |
| 20260506231509 | 27 | 275 | 8.0 | 14.5 | 0.00 | 0.00 | 0.00 | 48 | 1018.0 |
| 20260506231005 | 27 | 279 | 3.2 | 14.5 | 0.00 | 0.00 | 0.00 | 49 | 1018.0 |
| 20260506230504 | 27 | 279 | 4.8 | 14.5 | 0.00 | 0.00 | 0.00 | 49 | 1018.1 |
| 20260506230016 | 27 | 280 | 6.4 | 16.1 | 0.00 | 0.00 | 0.00 | 48 | 1018.2 |
| 20260506225503 | 27 | 281 | 4.8 | 16.1 | 0.00 | 0.00 | 0.00 | 49 | 1018.3 |
| 20260506225004 | 27 | 279 | 3.2 | 11.3 | 0.00 | 0.00 | 0.00 | 50 | 1018.3 |
| 20260506224503 | 27 | 279 | 3.2 | 14.5 | 0.00 | 0.00 | 0.00 | 50 | 1018.4 |
| 20260506224003 | 27 | 279 | 4.8 | 14.5 | 0.00 | 0.00 | 0.00 | 50 | 1018.4 |
| 20260506223503 | 27 | 279 | 6.4 | 14.5 | 0.00 | 0.00 | 0.00 | 50 | 1018.5 |
| 20260506223003 | 27 | 279 | 0.0 | 17.7 | 0.00 | 0.00 | 0.00 | 51 | 1018.6 |
| 20260506222504 | 27 | 279 | 9.7 | 17.7 | 0.00 | 0.00 | 0.00 | 50 | 1018.6 |
| 20260506222004 | 27 | 269 | 1.6 | 11.3 | 0.00 | 0.00 | 0.00 | 50 | 1018.7 |
| 20260506221507 | 26 | 269 | 1.6 | 11.3 | 0.00 | 0.00 | 0.00 | 52 | 1018.8 |
| 20260506221003 | 26 | 269 | 3.2 | 12.9 | 0.00 | 0.00 | 0.00 | 52 | 1018.9 |
| 20260506220502 | 26 | 269 | 4.8 | 14.5 | 0.00 | 0.00 | 0.00 | 51 | 1019.2 |
| 20260506220016 | 26 | 268 | 6.4 | 14.5 | 0.00 | 0.00 | 0.00 | 52 | 1019.3 |
| 20260506215504 | 25 | 267 | 6.4 | 17.7 | 0.00 | 0.00 | 0.00 | 54 | 1019.3 |
| 20260506215007 | 25 | 267 | 4.8 | 17.7 | 0.00 | 0.00 | 0.00 | 56 | 1019.4 |
| 20260506214519 | 25 | 269 | 4.8 | 11.3 | 0.00 | 0.00 | 0.00 | 56 | 1019.4 |
| 20260506214007 | 24 | 269 | 0.0 | 14.5 | 0.00 | 0.00 | 0.00 | 56 | 1019.5 |
| 20260506213505 | 24 | 269 | 4.8 | 16.1 | 0.00 | 0.00 | 0.00 | 56 | 1019.5 |
| 20260506213002 | 24 | 269 | 6.4 | 16.1 | 0.00 | 0.00 | 0.00 | 57 | 1019.6 |
| 20260506212502 | 24 | 269 | 1.6 | 6.4 | 0.00 | 0.00 | 0.00 | 56 | 1019.7 |
| 20260506212003 | 24 | 269 | 0.0 | 11.3 | 0.00 | 0.00 | 0.00 | 54 | 1019.7 |
| 20260506211506 | 24 | 269 | 0.0 | 11.3 | 0.00 | 0.00 | 0.00 | 54 | 1019.7 |
| 20260506211003 | 24 | 269 | 4.8 | 11.3 | 0.00 | 0.00 | 0.00 | 54 | 1019.7 |
| 20260506210505 | 24 | 269 | 1.6 | 11.3 | 0.00 | 0.00 | 0.00 | 56 | 1019.7 |
| 20260506210013 | 24 | 269 | 3.2 | 9.7 | 0.00 | 0.00 | 0.00 | 57 | 1019.7 |
| 20260506205505 | 24 | 269 | 0.0 | 11.3 | 0.00 | 0.00 | 0.00 | 55 | 1019.7 |
| 20260506205005 | 24 | 269 | 1.6 | 11.3 | 0.00 | 0.00 | 0.00 | 57 | 1019.8 |
| 20260506204516 | 24 | 269 | 3.2 | 11.3 | 0.00 | 0.00 | 0.00 | 57 | 1019.8 |
| 20260506204007 | 24 | 269 | 0.0 | 9.7 | 0.00 | 0.00 | 0.00 | 56 | 1019.8 |
| 20260506203503 | 23 | 269 | 0.0 | 12.9 | 0.00 | 0.00 | 0.00 | 55 | 1019.9 |
| 20260506203021 | 24 | 269 | 4.8 | 12.9 | 0.00 | 0.00 | 0.00 | 57 | 1020.0 |
| 20260506202505 | 23 | 269 | 3.2 | 14.5 | 0.00 | 0.00 | 0.00 | 57 | 1020.1 |
| 20260506202011 | 23 | 269 | 6.4 | 14.5 | 0.00 | 0.00 | 0.00 | 58 | 1020.2 |
| 20260506201527 | 23 | 269 | 3.2 | 12.9 | 0.00 | 0.00 | 0.00 | 59 | 1020.2 |
| 20260506201001 | 23 | 269 | 1.6 | 12.9 | 0.00 | 0.00 | 0.00 | 59 | 1020.2 |
| 20260506200502 | 23 | 269 | 3.2 | 12.9 | 0.00 | 0.00 | 0.00 | 60 | 1020.2 |
| 20260506200010 | 23 | 269 | 0.0 | 9.7 | 0.00 | 0.00 | 0.00 | 59 | 1020.2 |
| 20260506195506 | 22 | 269 | 0.0 | 9.7 | 0.00 | 0.00 | 0.00 | 60 | 1020.3 |
| 20260506195006 | 22 | 269 | 1.6 | 11.3 | 0.00 | 0.00 | 0.00 | 60 | 1020.3 |
| 20260506194514 | 22 | 269 | 1.6 | 11.3 | 0.00 | 0.00 | 0.00 | 60 | 1020.5 |
| 20260506194007 | 22 | 269 | 1.6 | 9.7 | 0.00 | 0.00 | 0.00 | 60 | 1020.6 |
| 20260506193507 | 22 | 269 | 0.0 | 6.4 | 0.00 | 0.00 | 0.00 | 58 | 1020.6 |
| 20260506193019 | 22 | 269 | 0.0 | 9.7 | 0.00 | 0.00 | 0.00 | 58 | 1020.7 |
| 20260506192507 | 23 | 269 | 0.0 | 12.9 | 0.00 | 0.00 | 0.00 | 57 | 1020.8 |
| 20260506192007 | 23 | 269 | 8.0 | 12.9 | 0.00 | 0.00 | 0.00 | 56 | 1020.8 |
| 20260506191523 | 23 | 269 | 0.0 | 6.4 | 0.00 | 0.00 | 0.00 | 57 | 1020.8 |
| 20260506191007 | 23 | 269 | 0.0 | 4.8 | 0.00 | 0.00 | 0.00 | 56 | 1020.9 |
| 20260506190506 | 23 | 269 | 0.0 | 4.8 | 0.00 | 0.00 | 0.00 | 55 | 1021.0 |
| 20260506190024 | 23 | 269 | 0.0 | 4.8 | 0.00 | 0.00 | 0.00 | 54 | 1020.9 |
| 20260506185503 | 23 | 269 | 0.0 | 11.3 | 0.00 | 0.00 | 0.00 | 54 | 1020.8 |
| 20260506185006 | 24 | 269 | 0.0 | 11.3 | 0.00 | 0.00 | 0.00 | 53 | 1020.9 |
| 20260506184521 | 24 | 269 | 3.2 | 11.3 | 0.00 | 0.00 | 0.00 | 53 | 1020.8 |
| 20260506184003 | 24 | 269 | 0.0 | 3.2 | 0.00 | 0.00 | 0.00 | 56 | 1020.8 |
| 20260506183507 | 23 | 269 | 0.0 | 6.4 | 0.00 | 0.00 | 0.00 | 55 | 1020.8 |
| 20260506183018 | 23 | 269 | 1.6 | 6.4 | 0.00 | 0.00 | 0.00 | 54 | 1020.8 |
| 20260506182503 | 23 | 269 | 3.2 | 9.7 | 0.00 | 0.00 | 0.00 | 57 | 1020.8 |
| 20260506182007 | 23 | 269 | 0.0 | 9.7 | 0.00 | 0.00 | 0.00 | 57 | 1020.9 |
| 20260506181521 | 23 | 269 | 1.6 | 6.4 | 0.00 | 0.00 | 0.00 | 57 | 1020.9 |
| 20260506181008 | 22 | 269 | 0.0 | 6.4 | 0.00 | 0.00 | 0.00 | 58 | 1020.9 |
| 20260506180508 | 23 | 269 | 1.6 | 6.4 | 0.00 | 0.00 | 0.00 | 57 | 1020.9 |
| 20260506180028 | 23 | 269 | 3.2 | 6.4 | 0.00 | 0.00 | 0.00 | 57 | 1020.9 |
| 20260506175507 | 23 | 269 | 0.0 | 9.7 | 0.00 | 0.00 | 0.00 | 56 | 1020.9 |
| 20260506175009 | 23 | 269 | 3.2 | 9.7 | 0.00 | 0.00 | 0.00 | 59 | 1021.0 |
| 20260506174527 | 22 | 269 | 0.0 | 9.7 | 0.00 | 0.00 | 0.00 | 59 | 1021.1 |
| 20260506174012 | 22 | 269 | 1.6 | 11.3 | 0.00 | 0.00 | 0.00 | 61 | 1021.1 |
| 20260506173503 | 22 | 269 | 6.4 | 11.3 | 0.00 | 0.00 | 0.00 | 61 | 1021.1 |
| 20260506173016 | 21 | 269 | 0.0 | 9.7 | 0.00 | 0.00 | 0.00 | 63 | 1021.0 |
| 20260506172505 | 21 | 269 | 0.0 | 11.3 | 0.00 | 0.00 | 0.00 | 63 | 1021.0 |
| 20260506172005 | 21 | 269 | 3.2 | 11.3 | 0.00 | 0.00 | 0.00 | 65 | 1020.9 |
| 20260506171522 | 20 | 269 | 3.2 | 9.7 | 0.00 | 0.00 | 0.00 | 66 | 1020.9 |
| 20260506171007 | 20 | 269 | 0.0 | 6.4 | 0.00 | 0.00 | 0.00 | 66 | 1021.0 |
| 20260506170507 | 20 | 269 | 0.0 | 9.7 | 0.00 | 0.00 | 0.00 | 65 | 1021.0 |
| 20260506170024 | 20 | 269 | 1.6 | 9.7 | 0.00 | 0.00 | 0.00 | 66 | 1021.0 |
| 20260506165508 | 20 | 269 | 1.6 | 6.4 | 0.00 | 0.00 | 0.00 | 67 | 1021.0 |
| 20260506165010 | 20 | 269 | 0.0 | 6.4 | 0.00 | 0.00 | 0.00 | 68 | 1021.0 |
| 20260506164526 | 19 | 269 | 0.0 | 6.4 | 0.00 | 0.00 | 0.00 | 67 | 1021.0 |
| 20260506164014 | 18 | 269 | 0.0 | 6.4 | 0.00 | 0.00 | 0.00 | 68 | 1021.0 |
| 20260506163502 | 18 | 269 | 0.0 | 4.8 | 0.00 | 0.00 | 0.00 | 71 | 1021.0 |
| 20260506163013 | 18 | 269 | 1.6 | 4.8 | 0.00 | 0.00 | 0.00 | 70 | 1021.0 |
| 20260506162507 | 17 | 269 | 0.0 | 6.4 | 0.00 | 0.00 | 0.00 | 71 | 1021.0 |
| 20260506162010 | 17 | 269 | 0.0 | 6.4 | 0.00 | 0.00 | 0.00 | 72 | 1020.9 |
| 20260506161522 | 17 | 269 | 0.0 | 6.4 | 0.00 | 0.00 | 0.00 | 72 | 1021.0 |
| 20260506161011 | 17 | 269 | 0.0 | 6.4 | 0.00 | 0.00 | 0.00 | 73 | 1021.0 |
| 20260506160502 | 17 | 269 | 1.6 | 6.4 | 0.00 | 0.00 | 0.00 | 73 | 1021.0 |
| 20260506160004 | 16 | 269 | 0.0 | 6.4 | 0.00 | 0.00 | 0.00 | 74 | 1021.0 |
| 20260506155503 | 16 | 269 | 0.0 | 6.4 | 0.00 | 0.00 | 0.00 | 74 | 1021.1 |
| 20260506155003 | 16 | 269 | 1.6 | 6.4 | 0.00 | 0.00 | 0.00 | 74 | 1021.0 |
| 20260506154508 | 16 | 269 | 0.0 | 6.4 | 0.00 | 0.00 | 0.00 | 75 | 1021.0 |
| 20260506154003 | 16 | 269 | 1.6 | 6.4 | 0.00 | 0.00 | 0.00 | 75 | 1021.0 |
| 20260506153503 | 16 | 269 | 1.6 | 6.4 | 0.00 | 0.00 | 0.00 | 76 | 1021.0 |
| 20260506153011 | 15 | 269 | 1.6 | 6.4 | 0.00 | 0.00 | 0.00 | 76 | 1021.0 |
| 20260506152503 | 15 | 269 | 1.6 | 6.4 | 0.00 | 0.00 | 0.00 | 76 | 1021.0 |
| 20260506152004 | 15 | 269 | 1.6 | 6.4 | 0.00 | 0.00 | 0.00 | 76 | 1020.9 |
| 20260506151516 | 15 | 269 | 1.6 | 6.4 | 0.00 | 0.00 | 0.00 | 76 | 1020.9 |
| 20260506151003 | 15 | 269 | 0.0 | 9.7 | 0.00 | 0.00 | 0.00 | 77 | 1020.9 |
| 20260506150505 | 15 | 269 | 1.6 | 9.7 | 0.00 | 0.00 | 0.00 | 77 | 1020.9 |
| 20260506150020 | 15 | 269 | 1.6 | 6.4 | 0.00 | 0.00 | 0.00 | 77 | 1020.9 |
| 20260506145504 | 15 | 269 | 0.0 | 6.4 | 0.00 | 0.00 | 0.00 | 77 | 1020.8 |
| 20260506145006 | 14 | 269 | 0.0 | 6.4 | 0.00 | 0.00 | 0.00 | 77 | 1020.8 |
| 20260506144509 | 14 | 269 | 0.0 | 6.4 | 0.00 | 0.00 | 0.00 | 77 | 1020.8 |
| 20260506144003 | 14 | 269 | 1.6 | 6.4 | 0.00 | 0.00 | 0.00 | 77 | 1020.7 |
| 20260506143504 | 14 | 269 | 0.0 | 11.3 | 0.00 | 0.00 | 0.00 | 77 | 1020.7 |
| 20260506143010 | 13 | 269 | 1.6 | 11.3 | 0.00 | 0.00 | 0.00 | 77 | 1020.7 |
| 20260506142504 | 13 | 269 | 0.0 | 6.4 | 0.00 | 0.00 | 0.00 | 78 | 1020.6 |
| 20260506142004 | 13 | 269 | 1.6 | 11.3 | 0.00 | 0.00 | 0.00 | 78 | 1020.6 |
| 20260506141512 | 13 | 269 | 0.0 | 11.3 | 0.00 | 0.00 | 0.00 | 77 | 1020.6 |
| 20260506141006 | 13 | 269 | 1.6 | 9.7 | 0.00 | 0.00 | 0.00 | 77 | 1020.6 |
| 20260506140504 | 13 | 269 | 0.0 | 4.8 | 0.00 | 0.00 | 0.00 | 77 | 1020.5 |
| 20260506140028 | 13 | 269 | 0.0 | 4.8 | 0.00 | 0.00 | 0.00 | 77 | 1020.4 |
| 20260506135503 | 13 | 269 | 0.0 | 6.4 | 0.00 | 0.00 | 0.00 | 77 | 1020.3 |
| 20260506135003 | 13 | 269 | 0.0 | 6.4 | 0.00 | 0.00 | 0.00 | 78 | 1020.3 |
| 20260506134530 | 13 | 269 | 0.0 | 0.0 | 0.00 | 0.00 | 0.00 | 78 | 1020.2 |
| 20260506134007 | 13 | 269 | 0.0 | 0.0 | 0.00 | 0.00 | 0.00 | 78 | 1020.3 |
| 20260506133509 | 13 | 269 | 0.0 | 3.2 | 0.00 | 0.00 | 0.00 | 78 | 1020.3 |
| 20260506133025 | 13 | 269 | 0.0 | 6.4 | 0.00 | 0.00 | 0.00 | 78 | 1020.2 |
| 20260506132502 | 13 | 269 | 0.0 | 6.4 | 0.00 | 0.00 | 0.00 | 78 | 1020.2 |
| 20260506132003 | 13 | 269 | 0.0 | 4.8 | 0.00 | 0.00 | 0.00 | 78 | 1020.1 |
| 20260506131508 | 13 | 269 | 0.0 | 6.4 | 0.00 | 0.00 | 0.00 | 78 | 1020.1 |
| 20260506131003 | 13 | 269 | 0.0 | 6.4 | 0.00 | 0.00 | 0.00 | 78 | 1020.1 |
| 20260506130503 | 13 | 269 | 1.6 | 6.4 | 0.00 | 0.00 | 0.00 | 78 | 1020.1 |
| 20260506130016 | 13 | 269 | 0.0 | 6.4 | 0.00 | 0.00 | 0.00 | 78 | 1020.0 |
| 20260506125506 | 13 | 269 | 0.0 | 12.9 | 0.00 | 0.00 | 0.00 | 78 | 1020.1 |
| 20260506125005 | 13 | 269 | 1.6 | 12.9 | 0.00 | 0.00 | 0.00 | 78 | 1020.1 |
| 20260506124519 | 13 | 269 | 0.0 | 11.3 | 0.00 | 0.00 | 0.00 | 78 | 1020.0 |
| 20260506124005 | 13 | 269 | 1.6 | 11.3 | 0.00 | 0.00 | 0.00 | 78 | 1020.0 |
| 20260506123509 | 13 | 269 | 1.6 | 11.3 | 0.00 | 0.00 | 0.00 | 78 | 1020.0 |
| 20260506123034 | 13 | 269 | 3.2 | 9.7 | 0.00 | 0.00 | 0.00 | 78 | 1020.0 |
| 20260506122510 | 13 | 269 | 1.6 | 9.7 | 0.00 | 0.00 | 0.00 | 77 | 1020.0 |
| 20260506122007 | 13 | 269 | 0.0 | 11.3 | 0.00 | 0.00 | 0.00 | 78 | 1020.0 |
| 20260506121526 | 13 | 269 | 0.0 | 11.3 | 0.00 | 0.00 | 0.00 | 78 | 1020.0 |
| 20260506121002 | 13 | 269 | 0.0 | 11.3 | 0.00 | 0.00 | 0.00 | 77 | 1019.9 |
| 20260506120503 | 13 | 269 | 3.2 | 12.9 | 0.00 | 0.00 | 0.00 | 78 | 1019.9 |
| 20260506120023 | 13 | 269 | 3.2 | 12.9 | 0.00 | 0.00 | 0.00 | 78 | 1019.9 |
| 20260506115504 | 13 | 269 | 1.6 | 14.5 | 0.00 | 0.00 | 0.00 | 78 | 1019.9 |
| 20260506115003 | 13 | 269 | 1.6 | 14.5 | 0.00 | 0.00 | 0.00 | 78 | 1019.9 |
| 20260506114520 | 13 | 269 | 4.8 | 12.9 | 0.00 | 0.00 | 0.00 | 78 | 1019.8 |
| 20260506114007 | 13 | 269 | 4.8 | 14.5 | 0.00 | 0.00 | 0.00 | 78 | 1019.8 |
| 20260506113508 | 13 | 269 | 4.8 | 16.1 | 0.00 | 0.00 | 0.00 | 78 | 1019.8 |
| 20260506113022 | 13 | 269 | 3.2 | 16.1 | 0.00 | 0.00 | 0.00 | 78 | 1019.8 |
| 20260506112508 | 13 | 269 | 3.2 | 14.5 | 0.00 | 0.00 | 0.00 | 78 | 1019.7 |
| 20260506112007 | 13 | 269 | 1.6 | 14.5 | 0.00 | 0.00 | 0.00 | 78 | 1019.6 |
| 20260506111524 | 13 | 269 | 1.6 | 9.7 | 0.00 | 0.00 | 0.00 | 78 | 1019.6 |
| 20260506111008 | 13 | 269 | 1.6 | 12.9 | 0.00 | 0.00 | 0.00 | 78 | 1019.5 |
| 20260506110513 | 13 | 269 | 1.6 | 12.9 | 0.00 | 0.00 | 0.00 | 78 | 1019.5 |
| 20260506110038 | 13 | 269 | 3.2 | 12.9 | 0.00 | 0.00 | 0.00 | 78 | 1019.5 |
| 20260506105508 | 13 | 269 | 3.2 | 11.3 | 0.00 | 0.00 | 0.00 | 78 | 1019.5 |
| 20260506105004 | 13 | 269 | 1.6 | 11.3 | 0.00 | 0.00 | 0.00 | 78 | 1019.4 |
| 20260506104522 | 13 | 269 | 1.6 | 11.3 | 0.00 | 0.00 | 0.00 | 78 | 1019.3 |
| 20260506104003 | 13 | 269 | 1.6 | 9.7 | 0.00 | 0.00 | 0.00 | 78 | 1019.3 |
| 20260506103503 | 13 | 270 | 1.6 | 11.3 | 0.00 | 0.00 | 0.00 | 78 | 1019.3 |
| 20260506103023 | 13 | 269 | 1.6 | 11.3 | 0.00 | 0.00 | 0.00 | 78 | 1019.3 |
| 20260506102509 | 13 | 269 | 1.6 | 11.3 | 0.00 | 0.00 | 0.00 | 78 | 1019.3 |
| 20260506102009 | 13 | 269 | 0.0 | 9.7 | 0.00 | 0.00 | 0.00 | 78 | 1019.2 |
| 20260506101529 | 13 | 269 | 1.6 | 9.7 | 0.00 | 0.00 | 0.00 | 77 | 1019.2 |
| 20260506101007 | 13 | 269 | 1.6 | 9.7 | 0.00 | 0.00 | 0.00 | 77 | 1019.2 |
| 20260506100507 | 13 | 269 | 0.0 | 11.3 | 0.00 | 0.00 | 0.00 | 77 | 1019.2 |
| 20260506100025 | 13 | 269 | 1.6 | 12.9 | 0.00 | 0.00 | 0.00 | 77 | 1019.2 |
| 20260506095506 | 13 | 269 | 3.2 | 12.9 | 0.00 | 0.00 | 0.00 | 77 | 1019.2 |
| 20260506095009 | 13 | 269 | 3.2 | 11.3 | 0.00 | 0.00 | 0.00 | 78 | 1019.2 |
| 20260506094527 | 13 | 269 | 1.6 | 12.9 | 0.00 | 0.00 | 0.00 | 78 | 1019.2 |
| 20260506094008 | 13 | 269 | 4.8 | 12.9 | 0.00 | 0.00 | 0.00 | 78 | 1019.2 |
| 20260506093503 | 13 | 269 | 3.2 | 11.3 | 0.00 | 0.00 | 0.00 | 78 | 1019.2 |
| 20260506093025 | 13 | 269 | 1.6 | 12.9 | 0.00 | 0.00 | 0.00 | 78 | 1019.3 |
| 20260506092503 | 13 | 269 | 1.6 | 12.9 | 0.00 | 0.00 | 0.00 | 78 | 1019.2 |
| 20260506092009 | 13 | 269 | 3.2 | 14.5 | 0.00 | 0.00 | 0.00 | 77 | 1019.3 |
| 20260506091522 | 13 | 269 | 1.6 | 14.5 | 0.00 | 0.00 | 0.00 | 78 | 1019.3 |
| 20260506091012 | 13 | 269 | 6.4 | 16.1 | 0.00 | 0.00 | 0.00 | 77 | 1019.3 |
| 20260506090504 | 13 | 270 | 9.7 | 16.1 | 0.00 | 0.00 | 0.00 | 77 | 1019.3 |
| 20260506090004 | 13 | 271 | 8.0 | 16.1 | 0.00 | 0.00 | 0.00 | 77 | 1019.4 |
| 20260506085506 | 13 | 271 | 4.8 | 14.5 | 0.00 | 0.00 | 0.00 | 77 | 1019.4 |
| 20260506085004 | 13 | 271 | 3.2 | 14.5 | 0.00 | 0.00 | 0.00 | 77 | 1019.4 |
| 20260506084510 | 13 | 271 | 6.4 | 14.5 | 0.00 | 0.00 | 0.00 | 77 | 1019.4 |
| 20260506084004 | 13 | 271 | 6.4 | 16.1 | 0.00 | 0.00 | 0.00 | 77 | 1019.4 |
| 20260506083504 | 13 | 271 | 4.8 | 16.1 | 0.00 | 0.00 | 0.00 | 77 | 1019.4 |
| 20260506083021 | 13 | 271 | 4.8 | 14.5 | 0.00 | 0.00 | 0.00 | 77 | 1019.4 |
| 20260506082506 | 13 | 271 | 4.8 | 16.1 | 0.00 | 0.00 | 0.00 | 77 | 1019.4 |
| 20260506082004 | 13 | 271 | 4.8 | 16.1 | 0.00 | 0.03 | 0.00 | 77 | 1019.4 |
| 20260506081517 | 13 | 272 | 4.8 | 14.5 | 0.00 | 0.03 | 0.00 | 77 | 1019.4 |
| 20260506081007 | 13 | 272 | 4.8 | 14.5 | 0.00 | 0.03 | 0.00 | 77 | 1019.3 |
| 20260506080508 | 13 | 272 | 4.8 | 11.3 | 0.00 | 0.03 | 0.00 | 77 | 1019.4 |
| 20260506073504 | 13 | 272 | 6.4 | 16.1 | 0.00 | 0.05 | 0.00 | 77 | 1019.1 |
| 20260506073012 | 13 | 272 | 3.2 | 14.5 | 0.00 | 0.05 | 0.00 | 77 | 1019.0 |
| 20260506072503 | 13 | 272 | 6.4 | 14.5 | 0.00 | 0.05 | 0.00 | 77 | 1019.0 |
| 20260506072004 | 13 | 272 | 4.8 | 14.5 | 0.00 | 0.05 | 0.00 | 77 | 1018.9 |
| 20260506071518 | 13 | 272 | 6.4 | 12.9 | 0.00 | 0.08 | 0.00 | 77 | 1018.9 |
| 20260506071004 | 13 | 272 | 1.6 | 14.5 | 0.00 | 0.10 | 0.00 | 77 | 1018.9 |
| 20260506070504 | 13 | 272 | 3.2 | 14.5 | 0.00 | 0.10 | 0.00 | 77 | 1018.8 |
| 20260506062504 | 13 | 272 | 1.6 | 11.3 | 0.00 | 0.28 | 0.13 | 76 | 1018.3 |
| 20260506062006 | 13 | 272 | 3.2 | 11.3 | 0.00 | 0.28 | 0.13 | 76 | 1018.3 |
| 20260506061514 | 13 | 272 | 4.8 | 11.3 | 0.00 | 0.30 | 0.13 | 76 | 1018.4 |
| 20260506061004 | 13 | 272 | 3.2 | 11.3 | 0.00 | 0.30 | 0.13 | 76 | 1018.4 |
| 20260506060508 | 13 | 272 | 0.0 | 9.7 | 0.00 | 0.30 | 0.13 | 77 | 1018.4 |
| 20260506051002 | 14 | 272 | 3.2 | 12.9 | 0.00 | 0.43 | 0.13 | 76 | 1018.1 |
| 20260506050505 | 14 | 272 | 1.6 | 9.7 | 0.00 | 0.43 | 0.13 | 76 | 1018.1 |
| 20260506045006 | 14 | 272 | 1.6 | 11.3 | 0.00 | 0.46 | 0.13 | 76 | 1017.8 |
| 20260506044518 | 14 | 272 | 1.6 | 11.3 | 0.00 | 0.46 | 0.13 | 76 | 1017.7 |
| 20260506044004 | 14 | 272 | 1.6 | 11.3 | 0.00 | 0.48 | 0.13 | 76 | 1017.7 |
| 20260506043510 | 14 | 272 | 1.6 | 12.9 | 0.00 | 0.48 | 0.13 | 76 | 1017.7 |
| 20260506043023 | 14 | 272 | 3.2 | 12.9 | 0.00 | 0.48 | 0.13 | 76 | 1017.5 |
| 20260506042509 | 14 | 272 | 3.2 | 11.3 | 0.00 | 0.51 | 0.13 | 76 | 1017.4 |
| 20260506042014 | 14 | 272 | 0.0 | 12.9 | 0.00 | 0.51 | 0.13 | 76 | 1017.4 |
| 20260506041526 | 14 | 272 | 3.2 | 12.9 | 0.00 | 0.53 | 0.13 | 76 | 1017.4 |
| 20260506041018 | 14 | 272 | 3.2 | 14.5 | 0.00 | 0.56 | 0.13 | 76 | 1017.4 |
| 20260506040503 | 14 | 272 | 1.6 | 14.5 | 0.00 | 0.61 | 0.13 | 76 | 1017.3 |
| 20260506040011 | 15 | 272 | 4.8 | 12.9 | 0.00 | 0.66 | 0.13 | 76 | 1017.3 |
| 20260506035503 | 15 | 272 | 1.6 | 12.9 | 0.00 | 0.66 | 0.13 | 76 | 1017.2 |
| 20260506035005 | 15 | 272 | 1.6 | 12.9 | 0.00 | 0.69 | 0.13 | 76 | 1017.2 |
| 20260506034515 | 15 | 272 | 6.4 | 16.1 | 0.00 | 0.69 | 0.13 | 75 | 1017.0 |
| 20260506034005 | 15 | 272 | 8.0 | 17.7 | 0.00 | 0.71 | 0.13 | 75 | 1017.0 |
| 20260506033514 | 15 | 272 | 6.4 | 17.7 | 0.00 | 0.71 | 0.13 | 75 | 1016.9 |
| 20260506033027 | 15 | 272 | 4.8 | 14.5 | 0.00 | 0.74 | 0.13 | 75 | 1016.8 |
| 20260506032510 | 15 | 272 | 3.2 | 20.9 | 0.00 | 0.76 | 0.13 | 75 | 1016.8 |
| 20260506032009 | 15 | 272 | 3.2 | 20.9 | 0.00 | 0.76 | 0.13 | 74 | 1016.8 |
| 20260506031540 | 15 | 272 | 4.8 | 20.9 | 0.00 | 0.76 | 0.13 | 74 | 1016.7 |
| 20260506031006 | 15 | 271 | 6.4 | 14.5 | 0.00 | 0.76 | 0.13 | 74 | 1016.5 |
| 20260506030506 | 16 | 271 | 4.8 | 14.5 | 0.00 | 0.76 | 0.13 | 74 | 1016.5 |
| 20260506030030 | 16 | 271 | 4.8 | 16.1 | 0.00 | 0.79 | 0.13 | 74 | 1016.4 |
| 20260506025510 | 16 | 271 | 6.4 | 16.1 | 0.00 | 0.79 | 0.13 | 74 | 1016.4 |
| 20260506025003 | 16 | 271 | 3.2 | 16.1 | 0.00 | 0.79 | 0.13 | 73 | 1016.4 |
| 20260506024513 | 16 | 271 | 3.2 | 16.1 | 0.00 | 0.81 | 0.13 | 73 | 1016.3 |
| 20260506024004 | 16 | 271 | 3.2 | 17.7 | 0.00 | 0.81 | 0.13 | 73 | 1016.3 |
| 20260506023508 | 16 | 271 | 4.8 | 17.7 | 0.00 | 0.81 | 0.13 | 73 | 1016.3 |
| 20260506023003 | 16 | 264 | 3.2 | 16.1 | 0.00 | 0.81 | 0.13 | 72 | 1016.2 |
| 20260506022502 | 17 | 263 | 1.6 | 14.5 | 0.00 | 0.81 | 0.13 | 72 | 1016.2 |
| 20260506022004 | 17 | 262 | 4.8 | 17.7 | 0.00 | 0.81 | 0.13 | 72 | 1015.9 |
| 20260506021502 | 17 | 262 | 8.0 | 17.7 | 0.00 | 0.84 | 0.13 | 72 | 1015.9 |
| 20260506021002 | 17 | 263 | 9.7 | 16.1 | 0.00 | 0.84 | 0.13 | 71 | 1016.0 |
| 20260506020503 | 17 | 262 | 8.0 | 17.7 | 0.00 | 0.84 | 0.13 | 71 | 1016.0 |
| 20260506020009 | 17 | 262 | 3.2 | 19.3 | 0.00 | 0.84 | 0.13 | 71 | 1016.1 |
| 20260506015503 | 17 | 261 | 8.0 | 19.3 | 0.00 | 0.84 | 0.13 | 70 | 1016.0 |
| 20260506015005 | 17 | 259 | 3.2 | 17.7 | 0.00 | 0.84 | 0.13 | 71 | 1016.0 |
| 20260506014510 | 17 | 259 | 4.8 | 17.7 | 0.00 | 0.84 | 0.13 | 70 | 1015.9 |
| 20260506014002 | 18 | 257 | 8.0 | 17.7 | 0.00 | 0.84 | 0.13 | 69 | 1015.9 |
| 20260506013503 | 18 | 252 | 3.2 | 19.3 | 0.00 | 0.84 | 0.13 | 69 | 1015.8 |
| 20260506013019 | 18 | 252 | 8.0 | 19.3 | 0.00 | 0.84 | 0.13 | 68 | 1015.8 |
| 20260506012504 | 18 | 249 | 4.8 | 19.3 | 0.00 | 0.84 | 0.13 | 69 | 1015.7 |
| 20260506012004 | 18 | 246 | 6.4 | 19.3 | 0.00 | 0.84 | 0.13 | 69 | 1015.7 |
| 20260506011520 | 18 | 244 | 8.0 | 20.9 | 0.00 | 0.86 | 0.13 | 69 | 1015.6 |
| 20260506011002 | 18 | 245 | 8.0 | 20.9 | 0.00 | 0.86 | 0.13 | 69 | 1015.6 |
| 20260506010502 | 18 | 254 | 9.7 | 20.9 | 0.00 | 0.86 | 0.13 | 68 | 1015.6 |
| 20260506010008 | 18 | 257 | 8.0 | 19.3 | 0.00 | 0.86 | 0.13 | 69 | 1015.5 |
| 20260506005501 | 18 | 258 | 8.0 | 19.3 | 0.00 | 0.86 | 0.13 | 68 | 1015.5 |
| 20260506005003 | 18 | 257 | 6.4 | 19.3 | 0.00 | 0.86 | 0.13 | 69 | 1015.5 |